Wetterdaten: aktuell Donnerstag, 09.07.2020 20:15
Datum Zeit Temp. Feuchte Luftdruck Nieders. Wind Richtung Richtung Sonnenschein Solar Taupunkt Windchill Windben
09.07.2020 20:15 26,4 C 47 % 1010,6 hPa 0,0 l/m 0,6 km/h (0 Bft) W-NW 288 0 min 33 W/m 14,2 C 26,4 C 6,4 km/h (2 Bft)
09.07.2020 20:10 26,6 C 46 % 1010,6 hPa 0,0 l/m 0,0 km/h (0 Bft) W-NW 288 0 min 40 W/m 14,0 C 26,6 C 1,6 km/h (1 Bft)
09.07.2020 20:05 26,6 C 45 % 1010,6 hPa 0,0 l/m 1,2 km/h (1 Bft) W-NW 288 0 min 40 W/m 13,7 C 26,6 C 9,7 km/h (2 Bft)
09.07.2020 20:00 26,7 C 45 % 1010,6 hPa 0,0 l/m 3,0 km/h (1 Bft) W 259 0 min 42 W/m 13,8 C 26,7 C 12,9 km/h (3 Bft)
09.07.2020 19:55 26,9 C 46 % 1010,6 hPa 0,0 l/m 1,5 km/h (1 Bft) W 271 0 min 47 W/m 14,3 C 26,9 C 9,7 km/h (2 Bft)
09.07.2020 19:50 26,9 C 45 % 1010,6 hPa 0,0 l/m 3,4 km/h (1 Bft) W 279 0 min 60 W/m 13,9 C 26,9 C 12,9 km/h (3 Bft)
09.07.2020 19:45 26,9 C 47 % 1010,6 hPa 0,0 l/m 1,6 km/h (1 Bft) N-NW 329 0 min 90 W/m 14,6 C 26,9 C 16,1 km/h (3 Bft)
09.07.2020 19:40 26,8 C 47 % 1010,6 hPa 0,0 l/m 2,1 km/h (1 Bft) W 268 0 min 104 W/m 14,5 C 26,8 C 11,3 km/h (2 Bft)
09.07.2020 19:35 26,8 C 46 % 1010,6 hPa 0,0 l/m 5,5 km/h (2 Bft) W 281 0 min 107 W/m 14,2 C 26,8 C 20,9 km/h (4 Bft)
09.07.2020 19:30 26,8 C 47 % 1010,6 hPa 0,0 l/m 1,9 km/h (1 Bft) W 261 0 min 111 W/m 14,5 C 26,8 C 8,0 km/h (2 Bft)
09.07.2020 19:25 26,8 C 46 % 1010,6 hPa 0,0 l/m 3,8 km/h (1 Bft) W 281 5 min 162 W/m 14,2 C 26,8 C 12,9 km/h (3 Bft)
09.07.2020 19:20 26,8 C 46 % 1010,6 hPa 0,0 l/m 5,9 km/h (2 Bft) W 273 5 min 176 W/m 14,2 C 26,8 C 17,7 km/h (3 Bft)
09.07.2020 19:15 26,9 C 45 % 1010,6 hPa 0,0 l/m 8,0 km/h (2 Bft) NW 306 0 min 128 W/m 13,9 C 26,6 C 17,7 km/h (3 Bft)
09.07.2020 19:10 26,9 C 45 % 1010,6 hPa 0,0 l/m 6,4 km/h (2 Bft) W-NW 289 0 min 88 W/m 13,9 C 26,9 C 16,1 km/h (3 Bft)
09.07.2020 19:05 27,1 C 43 % 1010,6 hPa 0,0 l/m 4,3 km/h (1 Bft) W 261 0 min 72 W/m 13,4 C 27,1 C 17,7 km/h (3 Bft)
09.07.2020 19:00 27,2 C 43 % 1010,6 hPa 0,0 l/m 5,4 km/h (2 Bft) NW 311 0 min 97 W/m 13,5 C 27,2 C 12,9 km/h (3 Bft)
09.07.2020 18:55 27,2 C 42 % 1010,6 hPa 0,0 l/m 7,0 km/h (2 Bft) NW 307 0 min 105 W/m 13,2 C 27,1 C 17,7 km/h (3 Bft)
09.07.2020 18:50 27,2 C 42 % 1010,7 hPa 0,0 l/m 6,4 km/h (2 Bft) W-NW 286 0 min 139 W/m 13,2 C 27,2 C 19,3 km/h (3 Bft)
09.07.2020 18:45 27,3 C 42 % 1010,7 hPa 0,0 l/m 6,5 km/h (2 Bft) W-NW 294 0 min 134 W/m 13,2 C 27,3 C 16,1 km/h (3 Bft)
09.07.2020 18:40 27,3 C 42 % 1010,8 hPa 0,0 l/m 6,2 km/h (2 Bft) NW 306 0 min 142 W/m 13,2 C 27,3 C 14,5 km/h (3 Bft)
09.07.2020 18:35 27,3 C 42 % 1010,7 hPa 0,0 l/m 10,6 km/h (2 Bft) NW 321 0 min 149 W/m 13,2 C 26,6 C 24,1 km/h (4 Bft)
09.07.2020 18:30 27,3 C 45 % 1010,7 hPa 0,0 l/m 2,2 km/h (1 Bft) W 259 5 min 176 W/m 14,3 C 27,3 C 14,5 km/h (3 Bft)
09.07.2020 18:25 27,3 C 47 % 1010,8 hPa 0,0 l/m 1,8 km/h (1 Bft) W-NW 299 5 min 336 W/m 15,0 C 27,3 C 8,0 km/h (2 Bft)
09.07.2020 18:20 27,3 C 47 % 1010,8 hPa 0,0 l/m 1,0 km/h (0 Bft) W-NW 290 5 min 156 W/m 15,0 C 27,3 C 6,4 km/h (2 Bft)
09.07.2020 18:15 27,3 C 46 % 1010,9 hPa 0,0 l/m 1,5 km/h (1 Bft) W 278 5 min 195 W/m 14,6 C 27,3 C 11,3 km/h (2 Bft)
09.07.2020 18:10 27,2 C 47 % 1010,9 hPa 0,0 l/m 1,4 km/h (1 Bft) W-NW 300 5 min 169 W/m 14,9 C 27,2 C 11,3 km/h (2 Bft)
09.07.2020 18:05 27,2 C 46 % 1010,9 hPa 0,0 l/m 1,1 km/h (1 Bft) W-NW 300 5 min 216 W/m 14,6 C 27,2 C 11,3 km/h (2 Bft)
09.07.2020 18:00 27,3 C 47 % 1010,9 hPa 0,0 l/m 0,7 km/h (0 Bft) NW 323 5 min 167 W/m 15,0 C 27,3 C 6,4 km/h (2 Bft)
09.07.2020 17:55 27,3 C 47 % 1010,9 hPa 0,0 l/m 0,1 km/h (0 Bft) N-NW 327 5 min 186 W/m 15,0 C 27,3 C 4,8 km/h (1 Bft)
09.07.2020 17:50 27,4 C 46 % 1011,0 hPa 0,0 l/m 1,0 km/h (0 Bft) N-NW 327 5 min 192 W/m 14,7 C 27,4 C 9,7 km/h (2 Bft)
09.07.2020 17:45 27,5 C 45 % 1011,0 hPa 0,0 l/m 2,9 km/h (1 Bft) NW 321 5 min 199 W/m 14,5 C 27,5 C 12,9 km/h (3 Bft)
09.07.2020 17:40 27,6 C 45 % 1011,0 hPa 0,0 l/m 2,7 km/h (1 Bft) NW 307 5 min 188 W/m 14,6 C 27,6 C 8,0 km/h (2 Bft)
09.07.2020 17:35 27,7 C 44 % 1011,1 hPa 0,0 l/m 2,8 km/h (1 Bft) W-NW 298 5 min 195 W/m 14,3 C 27,7 C 16,1 km/h (3 Bft)
09.07.2020 17:30 27,8 C 44 % 1011,2 hPa 0,0 l/m 3,4 km/h (1 Bft) W 263 5 min 239 W/m 14,4 C 27,8 C 14,5 km/h (3 Bft)
09.07.2020 17:25 27,8 C 42 % 1011,2 hPa 0,0 l/m 6,2 km/h (2 Bft) W-SW 257 5 min 199 W/m 13,7 C 27,8 C 14,5 km/h (3 Bft)
09.07.2020 17:20 27,9 C 41 % 1011,3 hPa 0,0 l/m 7,9 km/h (2 Bft) NW 324 5 min 209 W/m 13,4 C 27,7 C 20,9 km/h (4 Bft)
09.07.2020 17:15 27,9 C 43 % 1011,4 hPa 0,0 l/m 5,8 km/h (2 Bft) W-NW 283 5 min 334 W/m 14,1 C 27,9 C 17,7 km/h (3 Bft)
09.07.2020 17:10 27,9 C 41 % 1011,4 hPa 0,0 l/m 5,8 km/h (2 Bft) W 272 5 min 295 W/m 13,4 C 27,9 C 22,5 km/h (4 Bft)
09.07.2020 17:05 27,9 C 42 % 1011,4 hPa 0,0 l/m 4,1 km/h (1 Bft) NW 320 5 min 269 W/m 13,8 C 27,9 C 12,9 km/h (3 Bft)
09.07.2020 17:00 27,8 C 44 % 1011,5 hPa 0,0 l/m 6,4 km/h (2 Bft) NW 317 5 min 304 W/m 14,4 C 27,8 C 20,9 km/h (4 Bft)
09.07.2020 16:55 27,6 C 43 % 1011,5 hPa 0,0 l/m 7,7 km/h (2 Bft) W-NW 300 5 min 357 W/m 13,9 C 27,4 C 19,3 km/h (3 Bft)
09.07.2020 16:50 27,6 C 42 % 1011,6 hPa 0,0 l/m 6,8 km/h (2 Bft) W 280 5 min 320 W/m 13,5 C 27,5 C 17,7 km/h (3 Bft)
09.07.2020 16:45 27,6 C 42 % 1011,6 hPa 0,0 l/m 8,5 km/h (2 Bft) NW 316 5 min 236 W/m 13,5 C 27,3 C 17,7 km/h (3 Bft)
09.07.2020 16:40 27,7 C 42 % 1011,6 hPa 0,0 l/m 11,3 km/h (2 Bft) W-NW 293 5 min 290 W/m 13,6 C 27,0 C 27,4 km/h (5 Bft)
09.07.2020 16:35 27,8 C 42 % 1011,6 hPa 0,0 l/m 10,3 km/h (2 Bft) W 276 5 min 299 W/m 13,7 C 27,2 C 27,4 km/h (5 Bft)
09.07.2020 16:30 27,9 C 43 % 1011,7 hPa 0,0 l/m 7,6 km/h (2 Bft) W-SW 254 5 min 287 W/m 14,1 C 27,7 C 19,3 km/h (3 Bft)
09.07.2020 16:25 27,9 C 44 % 1011,7 hPa 0,0 l/m 5,3 km/h (1 Bft) W 275 5 min 267 W/m 14,5 C 27,9 C 17,7 km/h (3 Bft)
09.07.2020 16:20 27,7 C 43 % 1011,7 hPa 0,0 l/m 6,8 km/h (2 Bft) W 279 5 min 613 W/m 14,0 C 27,6 C 17,7 km/h (3 Bft)
09.07.2020 16:15 27,6 C 45 % 1011,9 hPa 0,0 l/m 8,6 km/h (2 Bft) W-SW 238 5 min 612 W/m 14,6 C 27,2 C 17,7 km/h (3 Bft)
09.07.2020 16:10 27,7 C 43 % 1011,9 hPa 0,0 l/m 12,6 km/h (3 Bft) NW 311 5 min 353 W/m 14,0 C 26,8 C 24,1 km/h (4 Bft)
09.07.2020 16:05 27,8 C 45 % 1011,8 hPa 0,0 l/m 10,5 km/h (2 Bft) W-NW 283 5 min 346 W/m 14,8 C 27,2 C 25,7 km/h (4 Bft)
09.07.2020 16:00 27,8 C 44 % 1011,8 hPa 0,0 l/m 8,5 km/h (2 Bft) W-NW 290 5 min 339 W/m 14,4 C 27,5 C 20,9 km/h (4 Bft)
09.07.2020 15:55 27,9 C 42 % 1011,9 hPa 0,0 l/m 8,7 km/h (2 Bft) W-NW 282 5 min 367 W/m 13,8 C 27,5 C 20,9 km/h (4 Bft)
09.07.2020 15:50 27,8 C 44 % 1012,0 hPa 0,0 l/m 10,4 km/h (2 Bft) W 279 5 min 724 W/m 14,4 C 27,2 C 20,9 km/h (4 Bft)
09.07.2020 15:45 27,7 C 45 % 1012,1 hPa 0,0 l/m 8,8 km/h (2 Bft) W-NW 291 5 min 492 W/m 14,7 C 27,3 C 17,7 km/h (3 Bft)
09.07.2020 15:40 27,7 C 48 % 1012,1 hPa 0,0 l/m 3,8 km/h (1 Bft) W 279 5 min 390 W/m 15,7 C 27,7 C 14,5 km/h (3 Bft)
09.07.2020 15:35 27,8 C 48 % 1012,2 hPa 0,0 l/m 4,1 km/h (1 Bft) W-NW 292 5 min 360 W/m 15,8 C 27,8 C 14,5 km/h (3 Bft)
09.07.2020 15:30 27,7 C 49 % 1012,1 hPa 0,0 l/m 5,2 km/h (1 Bft) SW 224 5 min 800 W/m 16,0 C 27,7 C 14,5 km/h (3 Bft)
09.07.2020 15:25 27,6 C 50 % 1012,2 hPa 0,0 l/m 4,0 km/h (1 Bft) W 277 5 min 865 W/m 16,2 C 27,6 C 14,5 km/h (3 Bft)
09.07.2020 15:20 27,3 C 51 % 1012,3 hPa 0,0 l/m 2,7 km/h (1 Bft) W-SW 246 5 min 424 W/m 16,3 C 27,3 C 16,1 km/h (3 Bft)
09.07.2020 15:15 26,8 C 54 % 1012,4 hPa 0,0 l/m 3,2 km/h (1 Bft) S-SO 150 5 min 1048 W/m 16,7 C 26,8 C 12,9 km/h (3 Bft)
09.07.2020 15:10 26,3 C 54 % 1012,4 hPa 0,0 l/m 2,6 km/h (1 Bft) S 174 5 min 439 W/m 16,2 C 26,3 C 11,3 km/h (2 Bft)
09.07.2020 15:05 26,3 C 53 % 1012,5 hPa 0,0 l/m 3,4 km/h (1 Bft) S-SW 209 5 min 336 W/m 15,9 C 26,3 C 11,3 km/h (2 Bft)
09.07.2020 15:00 26,4 C 53 % 1012,5 hPa 0,0 l/m 5,4 km/h (2 Bft) S-SO 155 5 min 311 W/m 16,0 C 26,4 C 17,7 km/h (3 Bft)
09.07.2020 14:55 26,3 C 55 % 1012,6 hPa 0,0 l/m 2,2 km/h (1 Bft) S-SO 148 5 min 1127 W/m 16,5 C 26,3 C 11,3 km/h (2 Bft)
09.07.2020 14:50 26,2 C 53 % 1012,6 hPa 0,0 l/m 2,2 km/h (1 Bft) W-NW 287 5 min 309 W/m 15,8 C 26,2 C 11,3 km/h (2 Bft)
09.07.2020 14:45 26,0 C 54 % 1012,6 hPa 0,0 l/m 2,3 km/h (1 Bft) NW 304 5 min 981 W/m 16,0 C 26,0 C 12,9 km/h (3 Bft)
09.07.2020 14:40 25,8 C 55 % 1012,8 hPa 0,0 l/m 4,4 km/h (1 Bft) W-NW 298 5 min 260 W/m 16,1 C 25,8 C 11,3 km/h (2 Bft)
09.07.2020 14:35 25,6 C 57 % 1012,8 hPa 0,0 l/m 4,5 km/h (1 Bft) SW 232 5 min 325 W/m 16,4 C 25,6 C 12,9 km/h (3 Bft)
09.07.2020 14:30 25,4 C 58 % 1012,9 hPa 0,0 l/m 5,2 km/h (1 Bft) SW 224 5 min 345 W/m 16,5 C 25,4 C 14,5 km/h (3 Bft)
09.07.2020 14:25 25,2 C 57 % 1012,9 hPa 0,0 l/m 5,8 km/h (2 Bft) S-SW 211 5 min 250 W/m 16,1 C 25,2 C 14,5 km/h (3 Bft)
09.07.2020 14:20 25,1 C 59 % 1013,1 hPa 0,0 l/m 4,2 km/h (1 Bft) SW 221 5 min 294 W/m 16,5 C 25,1 C 11,3 km/h (2 Bft)
09.07.2020 14:15 25,1 C 58 % 1013,2 hPa 0,0 l/m 6,5 km/h (2 Bft) S-SW 211 5 min 387 W/m 16,2 C 25,1 C 19,3 km/h (3 Bft)
09.07.2020 14:10 24,9 C 59 % 1013,2 hPa 0,0 l/m 4,0 km/h (1 Bft) S-SW 203 5 min 422 W/m 16,3 C 24,9 C 16,1 km/h (3 Bft)
09.07.2020 14:05 24,6 C 61 % 1013,2 hPa 0,0 l/m 6,5 km/h (2 Bft) S 181 5 min 352 W/m 16,6 C 24,6 C 16,1 km/h (3 Bft)
09.07.2020 14:00 24,6 C 60 % 1013,2 hPa 0,0 l/m 6,4 km/h (2 Bft) SW 216 5 min 258 W/m 16,3 C 24,6 C 16,1 km/h (3 Bft)
09.07.2020 13:55 24,3 C 62 % 1013,2 hPa 0,0 l/m 5,2 km/h (1 Bft) W-SW 248 5 min 621 W/m 16,5 C 24,3 C 12,9 km/h (3 Bft)
09.07.2020 13:50 24,2 C 63 % 1013,3 hPa 0,0 l/m 5,7 km/h (2 Bft) S-SW 205 5 min 267 W/m 16,7 C 24,2 C 20,9 km/h (4 Bft)
09.07.2020 13:45 24,1 C 65 % 1013,5 hPa 0,0 l/m 7,4 km/h (2 Bft) S-SW 207 5 min 422 W/m 17,1 C 23,8 C 19,3 km/h (3 Bft)
09.07.2020 13:40 23,9 C 66 % 1013,5 hPa 0,0 l/m 8,7 km/h (2 Bft) SW 236 5 min 346 W/m 17,1 C 23,3 C 17,7 km/h (3 Bft)
09.07.2020 13:35 23,8 C 66 % 1013,4 hPa 0,0 l/m 7,9 km/h (2 Bft) S-SW 202 5 min 267 W/m 17,1 C 23,4 C 17,7 km/h (3 Bft)
09.07.2020 13:30 23,6 C 68 % 1013,5 hPa 0,0 l/m 3,8 km/h (1 Bft) S-SO 167 5 min 341 W/m 17,3 C 23,6 C 11,3 km/h (2 Bft)
09.07.2020 13:25 23,5 C 68 % 1013,6 hPa 0,0 l/m 6,6 km/h (2 Bft) S-SO 155 5 min 297 W/m 17,2 C 23,4 C 14,5 km/h (3 Bft)
09.07.2020 13:20 23,4 C 67 % 1013,7 hPa 0,0 l/m 9,8 km/h (2 Bft) S-SW 199 5 min 329 W/m 16,9 C 22,4 C 19,3 km/h (3 Bft)
09.07.2020 13:15 23,5 C 67 % 1013,7 hPa 0,0 l/m 6,1 km/h (2 Bft) SW 229 5 min 294 W/m 17,0 C 23,5 C 16,1 km/h (3 Bft)
09.07.2020 13:10 23,6 C 67 % 1013,6 hPa 0,0 l/m 9,1 km/h (2 Bft) S 175 5 min 279 W/m 17,1 C 22,8 C 24,1 km/h (4 Bft)
09.07.2020 13:05 23,7 C 67 % 1013,7 hPa 0,0 l/m 8,6 km/h (2 Bft) S-SW 196 5 min 341 W/m 17,2 C 23,1 C 19,3 km/h (3 Bft)
09.07.2020 13:00 23,6 C 68 % 1013,7 hPa 0,0 l/m 7,1 km/h (2 Bft) W-SW 244 5 min 582 W/m 17,3 C 23,4 C 16,1 km/h (3 Bft)
09.07.2020 12:55 23,6 C 68 % 1013,7 hPa 0,0 l/m 7,4 km/h (2 Bft) S-SO 148 5 min 353 W/m 17,3 C 23,3 C 16,1 km/h (3 Bft)
09.07.2020 12:50 23,6 C 69 % 1013,7 hPa 0,0 l/m 6,9 km/h (2 Bft) S-SW 197 5 min 415 W/m 17,6 C 23,5 C 16,1 km/h (3 Bft)
09.07.2020 12:45 23,5 C 69 % 1013,7 hPa 0,0 l/m 7,5 km/h (2 Bft) SW 225 5 min 348 W/m 17,5 C 23,2 C 17,7 km/h (3 Bft)
09.07.2020 12:40 23,2 C 71 % 1013,7 hPa 0,0 l/m 7,5 km/h (2 Bft) S-SO 167 5 min 383 W/m 17,6 C 22,9 C 17,7 km/h (3 Bft)
09.07.2020 12:35 23,2 C 69 % 1013,8 hPa 0,0 l/m 8,1 km/h (2 Bft) SW 223 5 min 1129 W/m 17,2 C 22,7 C 16,1 km/h (3 Bft)
09.07.2020 12:30 22,8 C 71 % 1013,8 hPa 0,0 l/m 7,6 km/h (2 Bft) S-SW 195 5 min 541 W/m 17,3 C 22,4 C 14,5 km/h (3 Bft)
09.07.2020 12:25 22,8 C 70 % 1013,9 hPa 0,0 l/m 9,0 km/h (2 Bft) SW 219 5 min 352 W/m 17,0 C 22,0 C 19,3 km/h (3 Bft)
09.07.2020 12:20 22,9 C 71 % 1013,7 hPa 0,0 l/m 7,6 km/h (2 Bft) SO 140 5 min 376 W/m 17,4 C 22,5 C 16,1 km/h (3 Bft)
09.07.2020 12:15 22,9 C 71 % 1013,7 hPa 0,0 l/m 10,4 km/h (2 Bft) S 186 5 min 406 W/m 17,4 C 21,7 C 24,1 km/h (4 Bft)
09.07.2020 12:10 22,7 C 75 % 1013,7 hPa 0,0 l/m 5,8 km/h (2 Bft) SO 146 5 min 1123 W/m 18,0 C 22,7 C 14,5 km/h (3 Bft)
09.07.2020 12:05 22,1 C 76 % 1013,8 hPa 0,0 l/m 3,6 km/h (1 Bft) S 169 5 min 599 W/m 17,7 C 22,1 C 16,1 km/h (3 Bft)
09.07.2020 12:00 21,7 C 77 % 1013,8 hPa 0,0 l/m 5,0 km/h (1 Bft) SO 141 5 min 308 W/m 17,5 C 21,7 C 11,3 km/h (2 Bft)
09.07.2020 11:55 21,4 C 76 % 1013,9 hPa 0,0 l/m 6,0 km/h (2 Bft) S-SO 159 5 min 371 W/m 17,0 C 21,4 C 17,7 km/h (3 Bft)
09.07.2020 11:50 21,3 C 78 % 1013,9 hPa 0,0 l/m 10,1 km/h (2 Bft) O-SO 122 5 min 343 W/m 17,3 C 20,0 C 16,1 km/h (3 Bft)
09.07.2020 11:45 21,2 C 77 % 1014,1 hPa 0,0 l/m 4,9 km/h (1 Bft) SO 130 5 min 323 W/m 17,0 C 21,2 C 14,5 km/h (3 Bft)
09.07.2020 11:40 21,2 C 78 % 1014,2 hPa 0,0 l/m 6,1 km/h (2 Bft) S-SO 167 5 min 279 W/m 17,2 C 21,2 C 12,9 km/h (3 Bft)
09.07.2020 11:35 21,2 C 78 % 1014,1 hPa 0,0 l/m 4,9 km/h (1 Bft) S 186 5 min 336 W/m 17,2 C 21,2 C 12,9 km/h (3 Bft)
09.07.2020 11:30 21,1 C 79 % 1014,1 hPa 0,0 l/m 5,0 km/h (1 Bft) SO 140 5 min 341 W/m 17,3 C 21,1 C 14,5 km/h (3 Bft)
09.07.2020 11:25 20,9 C 79 % 1014,1 hPa 0,0 l/m 6,4 km/h (2 Bft) S-SO 158 5 min 390 W/m 17,1 C 20,9 C 17,7 km/h (3 Bft)
09.07.2020 11:20 20,8 C 80 % 1014,1 hPa 0,0 l/m 5,4 km/h (2 Bft) S-SW 205 5 min 364 W/m 17,2 C 20,8 C 12,9 km/h (3 Bft)
09.07.2020 11:15 20,7 C 80 % 1014,1 hPa 0,0 l/m 4,5 km/h (1 Bft) S-SW 205 5 min 276 W/m 17,1 C 20,7 C 11,3 km/h (2 Bft)
09.07.2020 11:10 20,6 C 81 % 1014,3 hPa 0,0 l/m 2,5 km/h (1 Bft) S-SW 213 5 min 281 W/m 17,2 C 20,6 C 9,7 km/h (2 Bft)
09.07.2020 11:05 20,4 C 81 % 1014,3 hPa 0,0 l/m 4,3 km/h (1 Bft) S-SO 150 5 min 251 W/m 17,0 C 20,4 C 9,7 km/h (2 Bft)
09.07.2020 11:00 20,3 C 81 % 1014,4 hPa 0,0 l/m 4,4 km/h (1 Bft) S-SW 196 5 min 255 W/m 16,9 C 20,3 C 12,9 km/h (3 Bft)
09.07.2020 10:55 20,3 C 81 % 1014,4 hPa 0,0 l/m 5,3 km/h (1 Bft) S-SO 153 5 min 220 W/m 16,9 C 20,3 C 12,9 km/h (3 Bft)
09.07.2020 10:50 20,3 C 81 % 1014,4 hPa 0,0 l/m 4,7 km/h (1 Bft) S-SW 211 5 min 195 W/m 16,9 C 20,3 C 11,3 km/h (2 Bft)
09.07.2020 10:45 20,3 C 82 % 1014,4 hPa 0,0 l/m 6,0 km/h (2 Bft) SW 221 5 min 169 W/m 17,1 C 20,3 C 11,3 km/h (2 Bft)
09.07.2020 10:40 20,2 C 81 % 1014,4 hPa 0,0 l/m 8,3 km/h (2 Bft) S-SO 148 5 min 281 W/m 16,8 C 19,4 C 17,7 km/h (3 Bft)
09.07.2020 10:35 20,5 C 80 % 1014,5 hPa 0,0 l/m 7,0 km/h (2 Bft) S-SW 202 5 min 156 W/m 16,9 C 20,3 C 12,9 km/h (3 Bft)
09.07.2020 10:30 20,7 C 80 % 1014,5 hPa 0,0 l/m 6,1 km/h (2 Bft) S-SW 213 0 min 151 W/m 17,1 C 20,7 C 14,5 km/h (3 Bft)
09.07.2020 10:25 20,7 C 81 % 1014,5 hPa 0,0 l/m 5,5 km/h (2 Bft) SO 145 5 min 297 W/m 17,3 C 20,7 C 11,3 km/h (2 Bft)
09.07.2020 10:20 20,4 C 82 % 1014,4 hPa 0,0 l/m 5,5 km/h (2 Bft) S-SO 155 5 min 585 W/m 17,2 C 20,4 C 16,1 km/h (3 Bft)
09.07.2020 10:15 20,2 C 83 % 1014,4 hPa 0,0 l/m 4,8 km/h (1 Bft) S-SW 207 5 min 425 W/m 17,2 C 20,2 C 14,5 km/h (3 Bft)
09.07.2020 10:10 20,2 C 82 % 1014,6 hPa 0,0 l/m 8,8 km/h (2 Bft) S 175 5 min 288 W/m 17,0 C 19,3 C 17,7 km/h (3 Bft)
09.07.2020 10:05 20,0 C 84 % 1014,5 hPa 0,0 l/m 5,4 km/h (2 Bft) S-SW 212 5 min 429 W/m 17,2 C 20,0 C 19,3 km/h (3 Bft)
09.07.2020 10:00 19,7 C 84 % 1014,5 hPa 0,0 l/m 7,3 km/h (2 Bft) S 190 5 min 510 W/m 16,9 C 19,3 C 16,1 km/h (3 Bft)
09.07.2020 09:55 19,4 C 85 % 1014,6 hPa 0,0 l/m 4,9 km/h (1 Bft) SW 218 5 min 422 W/m 16,8 C 19,4 C 12,9 km/h (3 Bft)
09.07.2020 09:50 19,3 C 86 % 1014,6 hPa 0,0 l/m 5,8 km/h (2 Bft) S-SW 199 5 min 338 W/m 16,9 C 19,3 C 11,3 km/h (2 Bft)
09.07.2020 09:45 19,1 C 86 % 1014,6 hPa 0,0 l/m 4,7 km/h (1 Bft) S-SO 149 5 min 318 W/m 16,7 C 19,1 C 12,9 km/h (3 Bft)
09.07.2020 09:40 18,9 C 87 % 1014,6 hPa 0,0 l/m 4,1 km/h (1 Bft) S-SO 148 5 min 264 W/m 16,7 C 18,9 C 12,9 km/h (3 Bft)
09.07.2020 09:35 18,8 C 87 % 1014,7 hPa 0,0 l/m 6,1 km/h (2 Bft) S 184 5 min 197 W/m 16,6 C 18,8 C 16,1 km/h (3 Bft)
09.07.2020 09:30 18,7 C 87 % 1014,7 hPa 0,0 l/m 7,3 km/h (2 Bft) S-SO 162 5 min 178 W/m 16,5 C 18,3 C 16,1 km/h (3 Bft)
09.07.2020 09:25 18,6 C 88 % 1014,8 hPa 0,0 l/m 4,9 km/h (1 Bft) S 176 5 min 199 W/m 16,6 C 18,6 C 11,3 km/h (2 Bft)
09.07.2020 09:20 18,4 C 89 % 1014,9 hPa 0,0 l/m 4,3 km/h (1 Bft) S-SO 159 5 min 260 W/m 16,6 C 18,4 C 12,9 km/h (3 Bft)
09.07.2020 09:15 18,2 C 90 % 1014,9 hPa 0,0 l/m 3,1 km/h (1 Bft) S 184 5 min 301 W/m 16,5 C 18,2 C 12,9 km/h (3 Bft)
09.07.2020 09:10 18,0 C 90 % 1014,9 hPa 0,0 l/m 2,3 km/h (1 Bft) S-SO 155 5 min 272 W/m 16,3 C 18,0 C 12,9 km/h (3 Bft)
09.07.2020 09:05 17,8 C 90 % 1014,9 hPa 0,0 l/m 2,8 km/h (1 Bft) S-SO 167 5 min 206 W/m 16,1 C 17,8 C 9,7 km/h (2 Bft)
09.07.2020 09:00 17,7 C 90 % 1014,8 hPa 0,0 l/m 3,5 km/h (1 Bft) S 175 0 min 151 W/m 16,0 C 17,7 C 11,3 km/h (2 Bft)
09.07.2020 08:55 17,6 C 91 % 1014,9 hPa 0,0 l/m 4,0 km/h (1 Bft) S-SO 155 0 min 116 W/m 16,1 C 17,6 C 11,3 km/h (2 Bft)
09.07.2020 08:50 17,4 C 91 % 1014,9 hPa 0,0 l/m 2,6 km/h (1 Bft) S-SO 162 0 min 132 W/m 15,9 C 17,4 C 9,7 km/h (2 Bft)
09.07.2020 08:45 17,3 C 91 % 1014,9 hPa 0,0 l/m 7,1 km/h (2 Bft) SO 144 5 min 156 W/m 15,8 C 17,0 C 14,5 km/h (3 Bft)
09.07.2020 08:40 17,2 C 92 % 1015,0 hPa 0,0 l/m 6,2 km/h (2 Bft) S-SO 156 0 min 139 W/m 15,9 C 17,2 C 12,9 km/h (3 Bft)
09.07.2020 08:35 17,1 C 92 % 1014,9 hPa 0,0 l/m 1,6 km/h (1 Bft) S 171 0 min 144 W/m 15,8 C 17,1 C 8,0 km/h (2 Bft)
09.07.2020 08:30 17,1 C 92 % 1014,9 hPa 0,0 l/m 4,5 km/h (1 Bft) S-SO 167 0 min 88 W/m 15,8 C 17,1 C 12,9 km/h (3 Bft)
09.07.2020 08:25 16,9 C 92 % 1014,9 hPa 0,0 l/m 5,1 km/h (1 Bft) S 182 0 min 72 W/m 15,6 C 16,9 C 16,1 km/h (3 Bft)
09.07.2020 08:20 16,9 C 92 % 1014,9 hPa 0,0 l/m 7,2 km/h (2 Bft) SO 146 0 min 62 W/m 15,6 C 16,5 C 14,5 km/h (3 Bft)
09.07.2020 08:15 16,9 C 92 % 1015,0 hPa 0,0 l/m 5,4 km/h (2 Bft) S 169 0 min 63 W/m 15,6 C 16,9 C 11,3 km/h (2 Bft)
09.07.2020 08:10 16,8 C 92 % 1015,0 hPa 0,0 l/m 3,0 km/h (1 Bft) S-SO 159 0 min 54 W/m 15,5 C 16,8 C 12,9 km/h (3 Bft)
09.07.2020 08:05 16,8 C 92 % 1015,0 hPa 0,0 l/m 4,9 km/h (1 Bft) S-SO 161 0 min 51 W/m 15,5 C 16,8 C 11,3 km/h (2 Bft)
09.07.2020 08:00 16,8 C 93 % 1015,1 hPa 0,0 l/m 1,9 km/h (1 Bft) S-SO 166 0 min 46 W/m 15,7 C 16,8 C 8,0 km/h (2 Bft)
09.07.2020 07:55 16,8 C 93 % 1015,0 hPa 0,0 l/m 1,0 km/h (0 Bft) S-SO 164 0 min 42 W/m 15,7 C 16,8 C 8,0 km/h (2 Bft)
09.07.2020 07:50 16,7 C 93 % 1015,0 hPa 0,0 l/m 2,3 km/h (1 Bft) S-SO 164 0 min 49 W/m 15,6 C 16,7 C 9,7 km/h (2 Bft)
09.07.2020 07:45 16,7 C 93 % 1015,0 hPa 0,0 l/m 4,5 km/h (1 Bft) S-SO 161 0 min 47 W/m 15,6 C 16,7 C 14,5 km/h (3 Bft)
09.07.2020 07:40 16,6 C 93 % 1014,9 hPa 0,0 l/m 3,2 km/h (1 Bft) S-SO 151 0 min 49 W/m 15,5 C 16,6 C 9,7 km/h (2 Bft)
09.07.2020 07:35 16,6 C 93 % 1014,9 hPa 0,0 l/m 5,2 km/h (1 Bft) S-SO 159 0 min 44 W/m 15,5 C 16,6 C 11,3 km/h (2 Bft)
09.07.2020 07:30 16,5 C 93 % 1014,9 hPa 0,0 l/m 5,8 km/h (2 Bft) SO 146 0 min 40 W/m 15,4 C 16,5 C 16,1 km/h (3 Bft)
09.07.2020 07:25 16,5 C 93 % 1014,8 hPa 0,0 l/m 5,8 km/h (2 Bft) S-SO 157 0 min 30 W/m 15,4 C 16,5 C 14,5 km/h (3 Bft)
09.07.2020 07:20 16,4 C 93 % 1014,8 hPa 0,0 l/m 6,4 km/h (2 Bft) S-SO 162 0 min 37 W/m 15,3 C 16,4 C 12,9 km/h (3 Bft)
09.07.2020 07:15 16,4 C 93 % 1014,8 hPa 0,0 l/m 8,2 km/h (2 Bft) S 178 0 min 40 W/m 15,3 C 15,5 C 16,1 km/h (3 Bft)
09.07.2020 07:10 16,4 C 94 % 1014,8 hPa 0,0 l/m 7,6 km/h (2 Bft) SO 144 0 min 30 W/m 15,4 C 15,8 C 12,9 km/h (3 Bft)
09.07.2020 07:05 16,4 C 94 % 1014,9 hPa 0,0 l/m 5,9 km/h (2 Bft) S-SO 160 0 min 19 W/m 15,4 C 16,4 C 11,3 km/h (2 Bft)
09.07.2020 07:00 16,4 C 94 % 1014,9 hPa 0,0 l/m 7,4 km/h (2 Bft) S-SO 155 0 min 19 W/m 15,4 C 15,9 C 14,5 km/h (3 Bft)
09.07.2020 06:55 16,3 C 94 % 1014,9 hPa 0,0 l/m 5,2 km/h (1 Bft) SO 145 0 min 19 W/m 15,3 C 16,3 C 14,5 km/h (3 Bft)
09.07.2020 06:50 16,3 C 94 % 1014,9 hPa 0,0 l/m 8,2 km/h (2 Bft) S-SO 163 0 min 23 W/m 15,3 C 15,4 C 16,1 km/h (3 Bft)
09.07.2020 06:45 16,3 C 94 % 1014,8 hPa 0,0 l/m 8,1 km/h (2 Bft) S-SO 161 0 min 14 W/m 15,3 C 15,4 C 19,3 km/h (3 Bft)
09.07.2020 06:40 16,3 C 94 % 1014,9 hPa 0,0 l/m 6,5 km/h (2 Bft) S-SO 166 0 min 12 W/m 15,3 C 16,3 C 14,5 km/h (3 Bft)
09.07.2020 06:35 16,3 C 94 % 1014,9 hPa 0,0 l/m 6,3 km/h (2 Bft) S-SO 154 0 min 11 W/m 15,3 C 16,3 C 12,9 km/h (3 Bft)
09.07.2020 06:30 16,3 C 94 % 1014,8 hPa 0,0 l/m 5,5 km/h (2 Bft) S-SO 153 0 min 12 W/m 15,3 C 16,3 C 11,3 km/h (2 Bft)
09.07.2020 06:25 16,3 C 94 % 1014,9 hPa 0,0 l/m 3,8 km/h (1 Bft) SW 232 0 min 16 W/m 15,3 C 16,3 C 11,3 km/h (2 Bft)
09.07.2020 06:20 16,3 C 94 % 1014,9 hPa 0,0 l/m 5,7 km/h (2 Bft) S-SO 163 0 min 14 W/m 15,3 C 16,3 C 19,3 km/h (3 Bft)
09.07.2020 06:15 16,3 C 94 % 1014,9 hPa 0,0 l/m 5,2 km/h (1 Bft) S-SO 167 0 min 11 W/m 15,3 C 16,3 C 14,5 km/h (3 Bft)
09.07.2020 06:10 16,3 C 94 % 1014,9 hPa 0,0 l/m 5,3 km/h (1 Bft) S-SW 192 0 min 9 W/m 15,3 C 16,3 C 14,5 km/h (3 Bft)
09.07.2020 06:05 16,3 C 94 % 1014,9 hPa 0,0 l/m 6,2 km/h (2 Bft) SO 139 0 min 7 W/m 15,3 C 16,3 C 16,1 km/h (3 Bft)
09.07.2020 05:55 16,2 C 94 % 1015,0 hPa 0,0 l/m 8,0 km/h (2 Bft) S-SO 157 0 min 0 W/m 15,2 C 15,4 C 14,5 km/h (3 Bft)
09.07.2020 05:50 16,2 C 94 % 1015,0 hPa 0,0 l/m 4,8 km/h (1 Bft) S-SO 157 0 min 5 W/m 15,2 C 16,2 C 12,9 km/h (3 Bft)
09.07.2020 05:45 16,2 C 94 % 1015,0 hPa 0,0 l/m 3,2 km/h (1 Bft) S-SO 157 0 min 0 W/m 15,2 C 16,2 C 9,7 km/h (2 Bft)
09.07.2020 05:40 16,2 C 94 % 1015,0 hPa 0,0 l/m 3,2 km/h (1 Bft) S-SO 157 0 min 0 W/m 15,2 C 16,2 C 9,7 km/h (2 Bft)
09.07.2020 05:35 16,2 C 94 % 1015,0 hPa 0,0 l/m 1,6 km/h (1 Bft) S-SO 157 0 min 0 W/m 15,2 C 16,2 C 12,9 km/h (3 Bft)
09.07.2020 05:30 16,2 C 94 % 1015,0 hPa 0,0 l/m 3,2 km/h (1 Bft) SO 135 0 min 0 W/m 15,2 C 16,2 C 12,9 km/h (3 Bft)
09.07.2020 05:25 16,2 C 94 % 1015,1 hPa 0,0 l/m 0,0 km/h (0 Bft) S-SO 157 0 min 0 W/m 15,2 C 16,2 C 9,7 km/h (2 Bft)
09.07.2020 05:20 16,2 C 94 % 1015,1 hPa 0,0 l/m 3,2 km/h (1 Bft) S-SO 157 0 min 0 W/m 15,2 C 16,2 C 8,0 km/h (2 Bft)
09.07.2020 05:15 16,2 C 95 % 1015,1 hPa 0,0 l/m 4,8 km/h (1 Bft) S-SO 157 0 min 0 W/m 15,4 C 16,2 C 12,9 km/h (3 Bft)
09.07.2020 05:10 16,2 C 95 % 1015,1 hPa 0,0 l/m 3,2 km/h (1 Bft) S-SO 157 0 min 0 W/m 15,4 C 16,2 C 8,0 km/h (2 Bft)
09.07.2020 05:05 16,1 C 95 % 1015,1 hPa 0,0 l/m 6,4 km/h (2 Bft) S-SO 157 0 min 0 W/m 15,3 C 16,1 C 14,5 km/h (3 Bft)
09.07.2020 05:00 16,1 C 95 % 1015,2 hPa 0,0 l/m 8,0 km/h (2 Bft) S-SO 157 0 min 0 W/m 15,3 C 15,3 C 14,5 km/h (3 Bft)
09.07.2020 04:55 16,1 C 95 % 1015,1 hPa 0,0 l/m 3,2 km/h (1 Bft) S-SO 157 0 min 0 W/m 15,3 C 16,1 C 16,1 km/h (3 Bft)
09.07.2020 04:50 16,1 C 95 % 1015,2 hPa 0,0 l/m 3,2 km/h (1 Bft) S-SO 157 0 min 0 W/m 15,3 C 16,1 C 9,7 km/h (2 Bft)
09.07.2020 04:45 16,1 C 95 % 1015,2 hPa 0,0 l/m 4,8 km/h (1 Bft) SO 135 0 min 0 W/m 15,3 C 16,1 C 9,7 km/h (2 Bft)
09.07.2020 04:40 16,1 C 95 % 1015,2 hPa 0,0 l/m 0,0 km/h (0 Bft) SO 135 0 min 0 W/m 15,3 C 16,1 C 4,8 km/h (1 Bft)
09.07.2020 04:35 16,0 C 95 % 1015,2 hPa 0,0 l/m 0,0 km/h (0 Bft) N 0 0 min 0 W/m 15,2 C 16,0 C 0,0 km/h (0 Bft)
09.07.2020 04:30 16,0 C 95 % 1015,1 hPa 0,0 l/m 1,6 km/h (1 Bft) SO 135 0 min 0 W/m 15,2 C 16,0 C 6,4 km/h (2 Bft)
09.07.2020 04:25 16,0 C 95 % 1015,2 hPa 0,0 l/m 0,0 km/h (0 Bft) SO 135 0 min 0 W/m 15,2 C 16,0 C 1,6 km/h (1 Bft)
09.07.2020 04:20 16,0 C 95 % 1015,1 hPa 0,0 l/m 4,8 km/h (1 Bft) SO 135 0 min 0 W/m 15,2 C 16,0 C 14,5 km/h (3 Bft)
09.07.2020 04:15 15,9 C 95 % 1015,1 hPa 0,0 l/m 4,8 km/h (1 Bft) SO 135 0 min 0 W/m 15,1 C 15,9 C 12,9 km/h (3 Bft)
09.07.2020 04:10 15,9 C 95 % 1015,2 hPa 0,0 l/m 3,2 km/h (1 Bft) S 180 0 min 0 W/m 15,1 C 15,9 C 9,7 km/h (2 Bft)
09.07.2020 04:05 15,9 C 95 % 1015,1 hPa 0,0 l/m 4,8 km/h (1 Bft) S-SO 157 0 min 0 W/m 15,1 C 15,9 C 14,5 km/h (3 Bft)
09.07.2020 04:00 15,9 C 95 % 1015,0 hPa 0,0 l/m 1,6 km/h (1 Bft) SO 135 0 min 0 W/m 15,1 C 15,9 C 9,7 km/h (2 Bft)
09.07.2020 03:55 15,9 C 95 % 1015,0 hPa 0,0 l/m 4,8 km/h (1 Bft) S-SO 157 0 min 0 W/m 15,1 C 15,9 C 11,3 km/h (2 Bft)
09.07.2020 03:50 15,8 C 95 % 1015,1 hPa 0,0 l/m 4,8 km/h (1 Bft) S-SO 157 0 min 0 W/m 15,0 C 15,8 C 12,9 km/h (3 Bft)
09.07.2020 03:45 15,8 C 95 % 1015,2 hPa 0,0 l/m 4,8 km/h (1 Bft) S-SO 157 0 min 0 W/m 15,0 C 15,8 C 11,3 km/h (2 Bft)
09.07.2020 03:40 15,8 C 95 % 1015,2 hPa 0,0 l/m 3,2 km/h (1 Bft) S-SO 157 0 min 0 W/m 15,0 C 15,8 C 11,3 km/h (2 Bft)
09.07.2020 03:35 15,8 C 95 % 1015,2 hPa 0,0 l/m 4,8 km/h (1 Bft) SO 135 0 min 0 W/m 15,0 C 15,8 C 11,3 km/h (2 Bft)
09.07.2020 03:30 15,7 C 95 % 1015,3 hPa 0,0 l/m 4,8 km/h (1 Bft) SO 135 0 min 0 W/m 14,9 C 15,7 C 11,3 km/h (2 Bft)
09.07.2020 03:25 15,7 C 95 % 1015,4 hPa 0,0 l/m 6,4 km/h (2 Bft) SO 135 0 min 0 W/m 14,9 C 15,7 C 12,9 km/h (3 Bft)
09.07.2020 03:20 15,7 C 95 % 1015,3 hPa 0,0 l/m 6,4 km/h (2 Bft) S-SO 157 0 min 0 W/m 14,9 C 15,7 C 14,5 km/h (3 Bft)
09.07.2020 03:15 15,7 C 95 % 1015,4 hPa 0,0 l/m 8,0 km/h (2 Bft) S-SO 157 0 min 0 W/m 14,9 C 14,8 C 12,9 km/h (3 Bft)
09.07.2020 03:10 15,7 C 95 % 1015,5 hPa 0,0 l/m 3,2 km/h (1 Bft) S-SO 157 0 min 0 W/m 14,9 C 15,7 C 9,7 km/h (2 Bft)
09.07.2020 03:05 15,7 C 95 % 1015,5 hPa 0,0 l/m 4,8 km/h (1 Bft) S-SO 157 0 min 0 W/m 14,9 C 15,7 C 11,3 km/h (2 Bft)
09.07.2020 03:00 15,7 C 95 % 1015,5 hPa 0,0 l/m 4,8 km/h (1 Bft) S-SO 157 0 min 0 W/m 14,9 C 15,7 C 14,5 km/h (3 Bft)
09.07.2020 02:55 15,6 C 95 % 1015,5 hPa 0,0 l/m 3,2 km/h (1 Bft) S-SO 157 0 min 0 W/m 14,8 C 15,6 C 8,0 km/h (2 Bft)
09.07.2020 02:50 15,6 C 95 % 1015,5 hPa 0,0 l/m 1,6 km/h (1 Bft) S-SO 157 0 min 0 W/m 14,8 C 15,6 C 6,4 km/h (2 Bft)
09.07.2020 02:45 15,6 C 95 % 1015,6 hPa 0,0 l/m 0,0 km/h (0 Bft) S-SO 157 0 min 0 W/m 14,8 C 15,6 C 6,4 km/h (2 Bft)
09.07.2020 02:40 15,6 C 95 % 1015,6 hPa 0,0 l/m 1,6 km/h (1 Bft) SO 135 0 min 0 W/m 14,8 C 15,6 C 8,0 km/h (2 Bft)
09.07.2020 02:35 15,6 C 95 % 1015,6 hPa 0,0 l/m 0,0 km/h (0 Bft) SO 135 0 min 0 W/m 14,8 C 15,6 C 8,0 km/h (2 Bft)
09.07.2020 02:30 15,6 C 95 % 1015,6 hPa 0,0 l/m 1,6 km/h (1 Bft) SO 135 0 min 0 W/m 14,8 C 15,6 C 8,0 km/h (2 Bft)
09.07.2020 02:25 15,5 C 95 % 1015,6 hPa 0,0 l/m 6,4 km/h (2 Bft) S-SO 157 0 min 0 W/m 14,7 C 15,5 C 11,3 km/h (2 Bft)
09.07.2020 02:20 15,5 C 95 % 1015,7 hPa 0,0 l/m 1,6 km/h (1 Bft) S-SO 157 0 min 0 W/m 14,7 C 15,5 C 9,7 km/h (2 Bft)
09.07.2020 02:15 15,5 C 95 % 1015,6 hPa 0,0 l/m 1,6 km/h (1 Bft) S-SO 157 0 min 0 W/m 14,7 C 15,5 C 8,0 km/h (2 Bft)
09.07.2020 02:10 15,5 C 95 % 1015,7 hPa 0,0 l/m 1,6 km/h (1 Bft) S-SO 157 0 min 0 W/m 14,7 C 15,5 C 8,0 km/h (2 Bft)
09.07.2020 02:05 15,5 C 95 % 1015,8 hPa 0,0 l/m 6,4 km/h (2 Bft) S-SO 157 0 min 0 W/m 14,7 C 15,5 C 11,3 km/h (2 Bft)
09.07.2020 02:00 15,4 C 95 % 1015,9 hPa 0,0 l/m 3,2 km/h (1 Bft) S-SO 157 0 min 0 W/m 14,6 C 15,4 C 8,0 km/h (2 Bft)
09.07.2020 01:55 15,4 C 95 % 1015,8 hPa 0,0 l/m 6,4 km/h (2 Bft) S-SO 157 0 min 0 W/m 14,6 C 15,4 C 12,9 km/h (3 Bft)
09.07.2020 01:50 15,4 C 95 % 1015,9 hPa 0,0 l/m 6,4 km/h (2 Bft) S-SO 157 0 min 0 W/m 14,6 C 15,4 C 11,3 km/h (2 Bft)
09.07.2020 01:45 15,4 C 95 % 1015,9 hPa 0,0 l/m 6,4 km/h (2 Bft) SO 135 0 min 0 W/m 14,6 C 15,4 C 11,3 km/h (2 Bft)
09.07.2020 01:40 15,4 C 95 % 1015,9 hPa 0,0 l/m 8,0 km/h (2 Bft) SO 135 0 min 0 W/m 14,6 C 14,5 C 14,5 km/h (3 Bft)
09.07.2020 01:35 15,4 C 95 % 1016,0 hPa 0,0 l/m 6,4 km/h (2 Bft) SO 135 0 min 0 W/m 14,6 C 15,4 C 11,3 km/h (2 Bft)
09.07.2020 01:30 15,3 C 95 % 1016,0 hPa 0,0 l/m 6,4 km/h (2 Bft) SO 135 0 min 0 W/m 14,5 C 15,3 C 11,3 km/h (2 Bft)
09.07.2020 01:25 15,3 C 95 % 1016,1 hPa 0,0 l/m 4,8 km/h (1 Bft) SO 135 0 min 0 W/m 14,5 C 15,3 C 11,3 km/h (2 Bft)
09.07.2020 01:20 15,3 C 95 % 1016,2 hPa 0,0 l/m 4,8 km/h (1 Bft) O-SO 112 0 min 0 W/m 14,5 C 15,3 C 14,5 km/h (3 Bft)
09.07.2020 01:15 15,3 C 95 % 1016,2 hPa 0,0 l/m 8,0 km/h (2 Bft) O-SO 112 0 min 0 W/m 14,5 C 14,4 C 12,9 km/h (3 Bft)
09.07.2020 01:10 15,3 C 95 % 1016,2 hPa 0,0 l/m 4,8 km/h (1 Bft) SO 135 0 min 0 W/m 14,5 C 15,3 C 11,3 km/h (2 Bft)
09.07.2020 01:05 15,3 C 95 % 1016,3 hPa 0,0 l/m 3,2 km/h (1 Bft) SO 135 0 min 0 W/m 14,5 C 15,3 C 11,3 km/h (2 Bft)
09.07.2020 01:00 15,3 C 95 % 1016,4 hPa 0,0 l/m 0,0 km/h (0 Bft) O-SO 112 0 min 0 W/m 14,5 C 15,3 C 4,8 km/h (1 Bft)
09.07.2020 00:55 15,3 C 95 % 1016,5 hPa 0,0 l/m 0,0 km/h (0 Bft) N 0 0 min 0 W/m 14,5 C 15,3 C 0,0 km/h (0 Bft)
09.07.2020 00:50 15,2 C 94 % 1016,4 hPa 0,0 l/m 3,2 km/h (1 Bft) O-SO 112 0 min 0 W/m 14,2 C 15,2 C 11,3 km/h (2 Bft)
09.07.2020 00:45 15,2 C 95 % 1016,4 hPa 0,0 l/m 3,2 km/h (1 Bft) SO 135 0 min 0 W/m 14,4 C 15,2 C 8,0 km/h (2 Bft)
09.07.2020 00:40 15,2 C 94 % 1016,5 hPa 0,0 l/m 1,6 km/h (1 Bft) SO 135 0 min 0 W/m 14,2 C 15,2 C 8,0 km/h (2 Bft)
09.07.2020 00:35 15,2 C 94 % 1016,6 hPa 0,0 l/m 1,6 km/h (1 Bft) SO 135 0 min 0 W/m 14,2 C 15,2 C 8,0 km/h (2 Bft)
09.07.2020 00:30 15,2 C 94 % 1016,6 hPa 0,0 l/m 4,8 km/h (1 Bft) SO 135 0 min 0 W/m 14,2 C 15,2 C 8,0 km/h (2 Bft)
09.07.2020 00:25 15,2 C 94 % 1016,6 hPa 0,0 l/m 6,4 km/h (2 Bft) SO 135 0 min 0 W/m 14,2 C 15,2 C 14,5 km/h (3 Bft)
09.07.2020 00:20 15,2 C 94 % 1016,5 hPa 0,0 l/m 3,2 km/h (1 Bft) SO 135 0 min 0 W/m 14,2 C 15,2 C 14,5 km/h (3 Bft)
09.07.2020 00:15 15,1 C 94 % 1016,6 hPa 0,0 l/m 0,0 km/h (0 Bft) SO 135 0 min 0 W/m 14,1 C 15,1 C 6,4 km/h (2 Bft)
09.07.2020 00:10 15,1 C 94 % 1016,6 hPa 0,0 l/m 3,2 km/h (1 Bft) SO 135 0 min 0 W/m 14,1 C 15,1 C 11,3 km/h (2 Bft)
09.07.2020 00:05 15,1 C 94 % 1016,6 hPa 0,0 l/m 1,6 km/h (1 Bft) SO 135 0 min 0 W/m 14,1 C 15,1 C 6,4 km/h (2 Bft)
09.07.2020 00:00 15,1 C 95 % 1016,7 hPa 0,0 l/m 0,0 km/h (0 Bft) SO 135 0 min 0 W/m 14,3 C 15,1 C 4,8 km/h (1 Bft)
08.07.2020 23:55 15,0 C 94 % 1016,7 hPa 0,0 l/m 3,2 km/h (1 Bft) SO 135 0 min 0 W/m 14,0 C 15,0 C 11,3 km/h (2 Bft)
08.07.2020 23:50 14,9 C 94 % 1016,8 hPa 0,0 l/m 3,2 km/h (1 Bft) SO 135 0 min 0 W/m 13,9 C 14,9 C 8,0 km/h (2 Bft)
08.07.2020 23:45 14,9 C 94 % 1016,8 hPa 0,0 l/m 1,6 km/h (1 Bft) SO 135 0 min 0 W/m 13,9 C 14,9 C 6,4 km/h (2 Bft)
08.07.2020 23:40 14,9 C 94 % 1016,8 hPa 0,0 l/m 0,0 km/h (0 Bft) N 0 0 min 0 W/m 13,9 C 14,9 C 0,0 km/h (0 Bft)
08.07.2020 23:35 14,9 C 94 % 1016,8 hPa 0,0 l/m 0,0 km/h (0 Bft) N 0 0 min 0 W/m 13,9 C 14,9 C 0,0 km/h (0 Bft)
08.07.2020 23:30 14,9 C 94 % 1016,8 hPa 0,0 l/m 1,6 km/h (1 Bft) SO 135 0 min 0 W/m 13,9 C 14,9 C 8,0 km/h (2 Bft)
08.07.2020 23:25 14,8 C 94 % 1016,7 hPa 0,0 l/m 1,6 km/h (1 Bft) SO 135 0 min 0 W/m 13,8 C 14,8 C 6,4 km/h (2 Bft)
08.07.2020 23:20 14,8 C 94 % 1016,8 hPa 0,0 l/m 0,0 km/h (0 Bft) SO 135 0 min 0 W/m 13,8 C 14,8 C 6,4 km/h (2 Bft)
08.07.2020 23:15 14,8 C 94 % 1016,7 hPa 0,0 l/m 0,0 km/h (0 Bft) SO 135 0 min 0 W/m 13,8 C 14,8 C 1,6 km/h (1 Bft)
08.07.2020 23:10 14,8 C 94 % 1016,7 hPa 0,0 l/m 0,0 km/h (0 Bft) N 0 0 min 0 W/m 13,8 C 14,8 C 0,0 km/h (0 Bft)
08.07.2020 23:05 14,8 C 94 % 1016,6 hPa 0,0 l/m 1,6 km/h (1 Bft) SO 135 0 min 0 W/m 13,8 C 14,8 C 8,0 km/h (2 Bft)
08.07.2020 23:00 14,9 C 94 % 1016,7 hPa 0,0 l/m 1,0 km/h (0 Bft) SO 139 0 min 0 W/m 13,9 C 14,9 C 6,4 km/h (2 Bft)
08.07.2020 22:55 14,9 C 94 % 1016,7 hPa 0,0 l/m 3,9 km/h (1 Bft) SO 138 0 min 0 W/m 13,9 C 14,9 C 8,0 km/h (2 Bft)
08.07.2020 22:50 14,9 C 94 % 1016,7 hPa 0,0 l/m 2,4 km/h (1 Bft) SO 138 0 min 0 W/m 13,9 C 14,9 C 6,4 km/h (2 Bft)
08.07.2020 22:45 15,0 C 94 % 1016,7 hPa 0,0 l/m 2,2 km/h (1 Bft) SO 137 0 min 0 W/m 14,0 C 15,0 C 6,4 km/h (2 Bft)
08.07.2020 22:40 15,0 C 94 % 1016,7 hPa 0,0 l/m 6,0 km/h (2 Bft) SO 137 0 min 0 W/m 14,0 C 15,0 C 8,0 km/h (2 Bft)
08.07.2020 22:35 15,0 C 93 % 1016,7 hPa 0,0 l/m 5,3 km/h (1 Bft) SO 137 0 min 0 W/m 13,9 C 15,0 C 11,3 km/h (2 Bft)
08.07.2020 22:30 15,1 C 93 % 1016,8 hPa 0,0 l/m 5,7 km/h (2 Bft) SO 142 0 min 0 W/m 14,0 C 15,1 C 8,0 km/h (2 Bft)
08.07.2020 22:25 15,1 C 93 % 1016,7 hPa 0,0 l/m 5,6 km/h (2 Bft) SO 144 0 min 0 W/m 14,0 C 15,1 C 9,7 km/h (2 Bft)
08.07.2020 22:20 15,1 C 93 % 1016,8 hPa 0,0 l/m 5,9 km/h (2 Bft) S-SO 152 0 min 0 W/m 14,0 C 15,1 C 9,7 km/h (2 Bft)
08.07.2020 22:15 15,2 C 93 % 1016,8 hPa 0,0 l/m 5,1 km/h (1 Bft) S-SO 159 0 min 0 W/m 14,1 C 15,2 C 9,7 km/h (2 Bft)
08.07.2020 22:10 15,3 C 93 % 1016,9 hPa 0,0 l/m 0,0 km/h (0 Bft) S-SO 165 0 min 0 W/m 14,2 C 15,3 C 0,0 km/h (0 Bft)
08.07.2020 22:05 15,3 C 93 % 1016,9 hPa 0,0 l/m 0,0 km/h (0 Bft) S-SO 165 0 min 0 W/m 14,2 C 15,3 C 0,0 km/h (0 Bft)
08.07.2020 22:00 15,3 C 93 % 1016,9 hPa 0,0 l/m 0,0 km/h (0 Bft) S-SO 165 0 min 0 W/m 14,2 C 15,3 C 0,0 km/h (0 Bft)
08.07.2020 21:55 15,3 C 93 % 1016,9 hPa 0,0 l/m 0,0 km/h (0 Bft) S-SO 165 0 min 0 W/m 14,2 C 15,3 C 0,0 km/h (0 Bft)
08.07.2020 21:50 15,3 C 93 % 1016,7 hPa 0,0 l/m 3,0 km/h (1 Bft) S-SO 165 0 min 0 W/m 14,2 C 15,3 C 8,0 km/h (2 Bft)
08.07.2020 21:45 15,4 C 93 % 1016,7 hPa 0,0 l/m 1,3 km/h (1 Bft) S-SO 165 0 min 0 W/m 14,3 C 15,4 C 6,4 km/h (2 Bft)
08.07.2020 21:40 15,4 C 93 % 1016,8 hPa 0,0 l/m 0,0 km/h (0 Bft) S-SO 168 0 min 0 W/m 14,3 C 15,4 C 0,0 km/h (0 Bft)
08.07.2020 21:35 15,4 C 93 % 1016,7 hPa 0,0 l/m 0,0 km/h (0 Bft) S-SO 168 0 min 0 W/m 14,3 C 15,4 C 0,0 km/h (0 Bft)
08.07.2020 21:30 15,5 C 92 % 1016,7 hPa 0,0 l/m 0,0 km/h (0 Bft) S-SO 168 0 min 0 W/m 14,2 C 15,5 C 0,0 km/h (0 Bft)
08.07.2020 21:25 15,5 C 92 % 1016,7 hPa 0,0 l/m 0,0 km/h (0 Bft) S-SO 168 0 min 0 W/m 14,2 C 15,5 C 0,0 km/h (0 Bft)
08.07.2020 21:20 15,6 C 92 % 1016,7 hPa 0,0 l/m 0,0 km/h (0 Bft) S-SO 168 0 min 0 W/m 14,3 C 15,6 C 1,6 km/h (1 Bft)
08.07.2020 21:15 15,6 C 92 % 1016,7 hPa 0,0 l/m 0,1 km/h (0 Bft) S-SO 168 0 min 0 W/m 14,3 C 15,6 C 3,2 km/h (1 Bft)
08.07.2020 21:10 15,6 C 92 % 1016,7 hPa 0,0 l/m 0,4 km/h (0 Bft) S-SO 168 0 min 5 W/m 14,3 C 15,6 C 6,4 km/h (2 Bft)
08.07.2020 21:05 15,7 C 92 % 1016,7 hPa 0,0 l/m 0,8 km/h (0 Bft) S-SO 168 0 min 7 W/m 14,4 C 15,7 C 6,4 km/h (2 Bft)
08.07.2020 21:00 15,7 C 92 % 1016,6 hPa 0,0 l/m 0,0 km/h (0 Bft) S-SO 168 0 min 9 W/m 14,4 C 15,7 C 0,0 km/h (0 Bft)
_ Min-Zeit 23:05 17:10 18:55 - 21:00 - - - - 18:50 01:15 21:00
Minimum _ 14,8 C 41 % 1010,6 hPa - 0,0 km/h (0 Bft) - - - - 13,2 C 14,4 C 0,0 km/h (0 Bft)
_ Max-Zeit 15:55 00:00 21:55 21:00 16:10 - - 08:45 12:35 12:10 16:25 16:35
Maximum _ 27,9 C 95 % 1016,9 hPa 0,0 l/m 12,6 km/h
NW (3 Bft)
- - 5 min 1129 W/m 18,0 C 27,9 C 27,4 km/h
W-SW (5 Bft)
Durchschnitt _ 19,7 C 79 % 1014,4 hPa #0,0 l/m 4,1 km/h (1 Bft) S-SO - #9:40 h 263 W/m 15,2 C 19,6 C 11,3 km/h (2 Bft)